Regional Weather Roundup
Issued by NWS

Home | Current Version | Previous Version | Text Only | Print | Product List | Glossary Off
Versions: 1 2 3 4 5 6 7 8 9 10 11 12 13 14 15 16 17 18 19 20 21 22 23 24 25 26 27 28 29 30 31 32 33 34 35 36 37 38 39 40 41 42 43 44 45 46 47 48 49 50

621
ASUS43 KBIS 211710
RWRND

NORTH DAKOTA REGIONAL WEATHER ROUNDUP
NATIONAL WEATHER SERVICE BISMARCK ND
1100 AM CST SAT JAN 21 2017

NOTE: "FAIR" INDICATES FEW OR NO CLOUDS BELOW 12,000 FEET WITH NO
SIGNIFICANT WEATHER AND/OR OBSTRUCTIONS TO VISIBILITY.


NDZ001>003-009>011-017-211800-
NORTHWEST NORTH DAKOTA

CITY           SKY/WX    TMP DP  RH WIND       PRES   REMARKS
WILLISTON      CLOUDY    31  25  78 W6        29.35R
MINOT          CLOUDY    30  27  88 SE3       29.34R FOG
MINOT AFB      CLOUDY    27  26  96 CALM      29.33S FOG
$$

NDZ018>021-031>035-040>046-211800-
SOUTHWEST NORTH DAKOTA

CITY           SKY/WX    TMP DP  RH WIND       PRES   REMARKS
BISMARCK       CLOUDY    29  26  89 W6        29.37R FOG
DICKINSON      PTSUNNY   29  24  82 W12       29.32R WCI  19
GARRISON         N/A     22  21  96 CALM      29.34R
HETTINGER ARPT CLOUDY    31  26  82 W15       29.36R
$$

NDZ004>008-012>016-024-026-027-054-211800-
NORTHEAST NORTH DAKOTA

CITY           SKY/WX    TMP DP  RH WIND       PRES   REMARKS
GRAND FORKS    CLOUDY    36  32  85 SE10      29.42S
GRND FRKS AFB  CLOUDY    34  34  99 SE8       29.42R
DEVILS LAKE    SNOW      33  33 100 SE7       29.39R VSB 1/4
$$

NDZ022-023-025-028>030-036>039-047>053-211800-
SOUTHEAST NORTH DAKOTA

CITY           SKY/WX    TMP DP  RH WIND       PRES   REMARKS
FARGO          CLOUDY    39  34  82 SE7       29.41R
JAMESTOWN      SNOW      33  33 100 E7        29.36R VSB 1/2
$$





USA.gov is the U.S. government's official web portal to all federal, state and local government web resources and services.